Location: Praha
(50.0830°N, 14.4670°E)
Time: 17:08:44
(UTC+02:00)

ISS - Pass Details

Date: 27 May 2020
Orbit: 417 x 420 km, 51.6° (Epoch: 26 May)

Event Time Altitude Azimuth Distance (km) Brightness Sun altitude
Rises 22:20:53 0° 287° (WNW) 2,367 1.0 -10.3°
Reaches altitude 10° 22:22:59 10° 284° (WNW) 1,502 -0.1 -10.5°
Maximum altitude 22:26:20 66° 202° (SSW) 463 -3.7 -10.8°
Enters shadow 22:28:52 16° 122° (ESE) 1,180 -2.1 -11.1°
